GW4409 Weather Reports


time (UTC)temp
C
wind
direction
speed
KPH
gust
KPH
rain 1hr
cm
rain 24hr
cm
rain mn
cm
humidity
%
barometer
mb
20260510204405 22 20 3.2 14.5 0.00 1.04 0.00 59 1012.8
20260510203904 22 333 4.8 12.9 0.00 1.04 0.00 59 1012.7
20260510203406 22 0 1.6 9.7 0.00 1.04 0.00 57 1012.7
20260510202904 22 36 3.2 12.9 0.00 1.04 0.00 56 1012.7
20260510202405 23 358 3.2 8.0 0.00 1.07 0.00 56 1012.7
20260510201906 23 224 3.2 8.0 0.00 1.07 0.00 56 1012.7
20260510200904 23 242 3.2 8.0 0.00 1.07 0.00 55 1012.7
20260510200405 23 278 3.2 11.3 0.00 1.07 0.00 55 1012.7
20260510195905 23 277 4.8 11.3 0.00 1.07 0.00 55 1012.7
20260510194904 23 316 3.2 9.7 0.00 1.07 0.00 54 1012.7
20260510192904 24 331 3.2 11.3 0.00 1.07 0.00 56 1012.7
20260510192405 24 323 3.2 8.0 0.00 1.07 0.00 54 1012.7
20260510191406 24 324 4.8 14.5 0.00 1.07 0.00 55 1012.8
20260510190404 24 196 4.8 11.3 0.00 1.07 0.00 54 1012.6
20260510185405 23 291 3.2 9.7 0.00 1.07 0.00 57 1012.9
20260510184904 23 332 4.8 14.5 0.00 1.07 0.00 57 1012.9
20260510183905 23 261 4.8 9.7 0.00 1.07 0.00 58 1012.9
20260510183406 23 327 4.8 11.3 0.00 1.07 0.00 58 1012.9
20260510182909 23 353 4.8 12.9 0.00 1.09 0.00 58 1013.0
20260510182406 23 273 4.8 12.9 0.00 1.09 0.00 58 1013.0
20260510181904 23 199 4.8 9.7 0.00 1.09 0.00 57 1012.9
20260510181404 23 281 4.8 11.3 0.00 1.09 0.00 57 1012.9
20260510180904 23 279 4.8 9.7 0.00 1.09 0.00 58 1012.9
20260510180405 23 216 4.8 11.3 0.00 1.09 0.00 59 1012.9
20260510175904 23 311 4.8 9.7 0.00 1.09 0.00 58 1012.9
20260510175404 23 197 3.2 9.7 0.00 1.09 0.00 58 1012.9
20260510174904 23 219 4.8 11.3 0.00 1.09 0.00 59 1012.9
20260510173904 23 325 4.8 12.9 0.00 1.09 0.00 58 1013.0
20260510173405 23 348 3.2 12.9 0.00 1.09 0.00 56 1013.0
20260510172907 23 206 4.8 11.3 0.00 1.09 0.00 56 1012.9
20260510172405 24 202 4.8 12.9 0.00 1.09 0.00 54 1013.0
20260510171905 24 222 3.2 9.7 0.00 1.09 0.00 54 1012.8
20260510171409 23 189 4.8 9.7 0.00 1.09 0.00 56 1012.8
20260510170905 23 166 4.8 8.0 0.00 1.09 0.00 57 1012.8
20260510170405 23 223 4.8 11.3 0.00 1.09 0.00 58 1012.9
20260510165904 23 217 3.2 9.7 0.00 1.09 0.00 58 1012.8
20260510165404 22 239 8.0 14.5 0.00 1.09 0.00 57 1012.8
20260510164904 22 188 4.8 12.9 0.00 1.09 0.00 58 1012.8
20260510164405 22 221 4.8 12.9 0.00 1.09 0.00 58 1012.8
20260510163904 22 314 4.8 9.7 0.00 1.09 0.00 58 1012.8
20260510163406 22 201 4.8 9.7 0.00 1.12 0.00 60 1012.9
20260510162405 22 170 4.8 11.3 0.00 1.14 0.00 58 1012.9
20260510161904 22 302 4.8 11.3 0.00 1.14 0.00 62 1012.9
20260510160904 21 249 4.8 12.9 0.00 1.14 0.00 63 1012.9
20260510160406 21 234 4.8 11.3 0.00 1.14 0.00 63 1012.9
20260510155906 21 260 4.8 9.7 0.00 1.14 0.00 64 1012.9
20260510155404 21 233 4.8 14.5 0.00 1.14 0.00 66 1012.9
20260510154404 20 286 3.2 9.7 0.00 1.14 0.00 69 1013.1
20260510153904 20 261 4.8 9.7 0.00 1.14 0.00 70 1013.1
20260510153405 20 185 3.2 8.0 0.00 1.14 0.00 75 1013.2
20260510152903 19 236 3.2 8.0 0.00 1.14 0.00 74 1013.3
20260510152404 19 240 3.2 9.7 0.00 1.14 0.00 74 1013.2
20260510151904 18 310 1.6 8.0 0.00 1.14 0.00 78 1013.2
20260510151404 18 62 3.2 9.7 0.00 1.14 0.00 77 1013.2
20260510150904 18 220 4.8 9.7 0.00 1.14 0.00 78 1013.3
20260510145905 17 233 3.2 11.3 0.00 1.14 0.00 80 1013.4
20260510145404 17 185 3.2 8.0 0.00 1.14 0.00 83 1013.4
20260510144904 17 201 3.2 9.7 0.00 1.14 0.00 84 1013.3
20260510144405 17 284 3.2 4.8 0.00 1.14 0.00 84 1013.3
20260510143904 16 242 4.8 9.7 0.00 1.14 0.00 86 1013.4
20260510143404 16 292 1.6 4.8 0.00 1.14 0.00 87 1013.4
20260510142904 16 200 4.8 9.7 0.00 1.14 0.00 88 1013.3
20260510142404 15 249 3.2 8.0 0.00 1.14 0.00 89 1013.3
20260510141904 15 48 1.6 4.8 0.00 1.14 0.00 91 1013.3
20260510140904 15 342 1.6 8.0 0.00 1.14 0.00 92 1013.4
20260510140404 15 315 3.2 4.8 0.00 1.14 0.00 91 1013.3
20260510135904 14 285 1.6 3.2 0.00 1.14 0.00 94 1013.3
20260510133905 13 262 3.2 8.0 0.00 1.14 0.00 97 1013.3
20260510133404 13 340 1.6 8.0 0.00 1.14 0.00 99 1013.3
20260510132904 12 241 1.6 3.2 0.00 1.14 0.00 100 1013.3
20260510130904 12 333 1.6 4.8 0.00 1.14 0.00 100 1013.3
20260510130404 11 315 3.2 4.8 0.00 1.14 0.00 100 1013.4
20260510125904 11 333 1.6 3.2 0.00 1.14 0.00 100 1013.5
20260510125404 11 322 1.6 4.8 0.00 1.14 0.00 100 1013.4
20260510124905 11 171 1.6 3.2 0.00 1.14 0.00 100 1013.3
20260510124404 11 230 0.0 3.2 0.00 1.14 0.00 100 1013.3
20260510123404 11 311 0.0 1.6 0.00 1.14 0.00 100 1013.2
20260510122904 11 81 0.0 3.2 0.00 1.14 0.00 100 1013.0
20260510122403 11 75 0.0 3.2 0.00 1.14 0.00 100 1012.9
20260510121904 11 190 1.6 3.2 0.00 1.14 0.00 100 1012.9
20260510121405 11 183 1.6 3.2 0.00 1.14 0.00 99 1012.9
20260510120904 11 140 0.0 1.6 0.00 1.14 0.00 99 1012.9
20260510120404 11 204 1.6 3.2 0.00 1.14 0.00 100 1012.7
20260510115904 10 26 0.0 3.2 0.00 1.14 0.00 99 1012.5
20260510115404 10 94 0.0 3.2 0.00 1.14 0.00 99 1012.7
20260510114904 10 44 0.0 4.8 0.00 1.14 0.00 99 1012.7
20260510114404 10 58 1.6 3.2 0.00 1.14 0.00 99 1012.5
20260510113404 10 65 1.6 8.0 0.00 1.14 0.00 99 1012.6
20260510112404 10 84 1.6 3.2 0.00 1.14 0.00 99 1012.5
20260510111405 10 55 0.0 4.8 0.00 1.14 0.00 99 1012.6
20260510110904 10 43 1.6 3.2 0.00 1.14 0.00 99 1012.5
20260510110404 10 71 1.6 4.8 0.00 1.14 0.00 99 1012.4
20260510105904 10 59 1.6 4.8 0.00 1.14 0.00 99 1012.4
20260510105405 10 335 0.0 4.8 0.00 1.14 0.00 99 1012.4
20260510104904 10 53 4.8 8.0 0.00 1.14 0.00 99 1012.3
20260510104404 10 58 3.2 8.0 0.00 1.14 0.00 99 1012.2
20260510103903 10 75 3.2 8.0 0.00 1.14 0.00 99 1012.0
20260510102405 10 69 3.2 4.8 0.00 1.14 0.00 99 1011.9
20260510101404 10 67 1.6 4.8 0.00 1.14 0.00 99 1012.0
20260510100903 10 311 1.6 4.8 0.00 1.14 0.00 99 1012.1
20260510100404 10 44 1.6 3.2 0.00 1.14 0.00 99 1012.0
20260510095903 10 327 0.0 4.8 0.00 1.14 0.00 99 1011.9
20260510094903 10 46 1.6 4.8 0.00 1.14 0.00 99 1011.6
20260510094405 10 65 3.2 4.8 0.00 1.14 0.00 99 1011.8
20260510093904 10 66 1.6 4.8 0.00 1.14 0.00 99 1011.8
20260510093404 10 54 1.6 4.8 0.00 1.14 0.00 99 1011.8
20260510091904 10 72 1.6 4.8 0.00 1.14 0.00 99 1011.7
20260510090905 10 58 1.6 4.8 0.00 1.14 0.00 99 1011.8
20260510090404 10 57 1.6 4.8 0.00 1.14 0.00 99 1011.9
20260510085905 10 101 1.6 4.8 0.00 1.14 0.00 99 1011.8
20260510084903 9 223 1.6 4.8 0.00 1.14 0.00 99 1011.5
20260510084405 9 4 3.2 4.8 0.00 1.14 0.00 99 1012.0
20260510083905 9 229 1.6 4.8 0.00 1.14 0.00 99 1011.8
20260510083403 9 353 1.6 4.8 0.00 1.14 0.00 99 1011.6
20260510082904 9 346 4.8 9.7 0.00 1.14 0.00 99 1011.8
20260510082404 9 53 1.6 8.0 0.00 1.14 0.00 99 1011.7
20260510081904 9 7 3.2 8.0 0.00 1.14 0.00 99 1011.3
20260510080904 9 83 1.6 4.8 0.00 1.14 0.00 99 1011.2
20260510080404 9 64 3.2 4.8 0.00 1.14 0.00 99 1011.2
20260510075904 9 70 3.2 4.8 0.00 1.14 0.00 99 1011.0
20260510075404 9 65 1.6 3.2 0.00 1.14 0.00 99 1011.1
20260510074904 9 69 0.0 1.6 0.00 1.14 0.00 99 1011.1
20260510074403 9 59 0.0 1.6 0.00 1.14 0.00 99 1011.1
20260510073904 9 65 1.6 3.2 0.00 1.14 0.00 99 1011.1
20260510073403 9 51 0.0 0.0 0.00 1.14 0.00 99 1011.0
20260510072403 9 150 0.0 3.2 0.00 1.14 0.00 99 1011.1
20260510071904 9 27 0.0 0.0 0.00 1.14 0.00 99 1011.1
20260510071404 9 30 1.6 4.8 0.00 1.14 0.00 99 1011.2
20260510070904 9 294 1.6 3.2 0.00 1.14 0.00 99 1011.1
20260510070404 9 352 1.6 4.8 0.00 1.14 0.00 99 1011.1
20260510065904 9 329 1.6 4.8 0.00 1.14 0.00 99 1011.0
20260510065404 9 31 1.6 4.8 0.00 1.14 0.00 99 1011.0
20260510064906 9 331 0.0 4.8 0.00 1.14 0.00 99 1010.9
20260510064405 9 320 1.6 4.8 0.00 1.14 0.00 99 1010.8
20260510063905 9 64 1.6 3.2 0.00 1.14 0.00 99 1010.6
20260510063406 9 54 0.0 1.6 0.00 1.14 0.00 99 1010.5
20260510062906 9 49 0.0 1.6 0.00 1.14 0.00 99 1010.5
20260510062405 9 67 0.0 1.6 0.00 1.14 0.00 99 1010.6
20260510061905 9 63 0.0 1.6 0.00 1.14 0.00 99 1010.7
20260510061405 9 63 1.6 3.2 0.00 1.14 0.00 99 1010.7
20260510060907 9 64 1.6 3.2 0.00 1.14 0.00 99 1010.7
20260510060407 9 66 1.6 3.2 0.00 1.14 0.00 99 1010.8
20260510055905 9 57 1.6 3.2 0.00 1.14 0.00 99 1010.9
20260510054907 9 64 1.6 3.2 0.00 1.14 0.00 99 1010.9
20260510054405 9 176 0.0 0.0 0.00 1.14 0.00 99 1011.0
20260510053906 9 176 0.0 1.6 0.00 1.14 0.00 99 1011.0
20260510053405 9 160 0.0 1.6 0.00 1.14 0.00 99 1011.0
20260510052405 9 51 0.0 0.0 0.00 1.14 0.00 99 1011.0
20260510050906 9 51 0.0 1.6 0.00 1.14 0.00 99 1011.1
20260510050405 9 51 0.0 1.6 0.00 1.14 0.00 99 1011.1
20260510045905 9 56 0.0 1.6 0.48 1.14 0.00 99 1011.2
20260510045405 9 57 0.0 1.6 0.48 1.14 0.00 99 1011.2
20260510044905 9 59 1.6 3.2 0.48 1.14 0.00 99 1011.2
20260510044405 9 69 0.0 1.6 0.48 1.14 0.00 99 1011.2
20260510043905 9 70 0.0 1.6 0.48 1.14 0.00 99 1011.3
20260510043406 9 67 1.6 3.2 0.48 1.14 0.00 99 1011.3
20260510042904 9 66 1.6 3.2 0.48 1.14 0.00 99 1011.3
20260510042405 9 69 0.0 1.6 0.48 1.14 0.00 99 1011.3
20260510041905 9 65 0.0 1.6 0.48 1.14 0.00 99 1011.4
20260510041406 9 170 0.0 0.0 0.48 1.14 0.00 99 1011.4
20260510040405 9 170 0.0 1.6 0.48 1.14 0.00 99 1011.4
20260510035405 9 196 0.0 1.6 0.00 0.69 0.48 99 1011.3
20260510034905 9 209 0.0 1.6 0.00 0.69 0.48 99 1011.3
20260510034405 9 279 0.0 0.0 0.00 0.69 0.48 99 1011.3
20260510033905 9 279 0.0 0.0 0.00 0.69 0.48 99 1011.2
20260510033405 9 279 0.0 1.6 0.00 0.69 0.48 99 1011.2
20260510032908 9 65 0.0 0.0 0.00 0.69 0.48 99 1011.2
20260510032404 9 65 0.0 0.0 0.00 0.69 0.48 99 1011.1
20260510031905 9 65 0.0 0.0 0.00 0.69 0.48 99 1011.1
20260510031406 10 65 0.0 0.0 0.00 0.69 0.48 99 1011.0
20260510030906 10 65 0.0 1.6 0.00 0.69 0.48 99 1010.9
20260510030404 10 67 0.0 1.6 0.00 0.69 0.48 99 1010.9
20260510025905 9 68 0.0 1.6 0.00 0.69 0.48 99 1010.9
20260510025406 9 199 0.0 0.0 0.00 0.69 0.48 99 1011.0
20260510024906 9 199 0.0 0.0 0.00 0.69 0.48 99 1011.0
20260510024405 9 199 0.0 0.0 0.00 0.69 0.48 99 1011.0
20260510023907 10 199 0.0 0.0 0.00 0.69 0.48 99 1010.9
20260510023406 10 199 0.0 1.6 0.00 0.69 0.48 99 1010.8
20260510022905 10 170 0.0 0.0 0.00 0.69 0.48 99 1010.8
20260510022406 10 170 0.0 0.0 0.00 0.69 0.48 99 1010.9
20260510021905 10 170 0.0 0.0 0.00 0.69 0.48 99 1010.9
20260510021405 10 170 0.0 0.0 0.00 0.69 0.48 99 1010.8
20260510020905 10 170 0.0 0.0 0.00 0.69 0.48 99 1010.8
20260510020405 10 170 0.0 0.0 0.00 0.69 0.48 99 1010.8
20260510015905 10 170 0.0 0.0 0.00 0.69 0.48 99 1010.8
20260510015405 10 170 0.0 0.0 0.00 0.69 0.48 99 1010.8
20260510014904 10 170 0.0 0.0 0.00 0.69 0.48 99 1010.8
20260510014405 10 170 0.0 0.0 0.00 0.69 0.48 99 1010.8
20260510013905 10 170 0.0 0.0 0.00 0.69 0.48 99 1010.8
20260510013405 10 170 0.0 0.0 0.00 0.69 0.48 99 1010.8
20260510012905 10 170 0.0 0.0 0.00 0.69 0.48 99 1010.8
20260510012404 10 170 0.0 0.0 0.00 0.69 0.48 99 1010.8
20260510011905 10 170 0.0 1.6 0.00 0.69 0.48 99 1010.8
20260510011405 11 186 0.0 0.0 0.00 0.69 0.48 99 1010.8
20260510010905 11 181 0.0 0.0 0.00 0.69 0.48 99 1010.7
20260510010405 11 166 0.0 1.6 0.00 0.69 0.48 99 1010.6
20260510005906 11 59 0.0 0.0 0.00 0.69 0.48 99 1010.6
20260510004906 11 185 0.0 0.0 0.00 0.69 0.48 99 1010.5
20260510004408 11 185 0.0 1.6 0.00 0.69 0.48 99 1010.4
20260510003904 11 167 0.0 0.0 0.00 0.69 0.48 99 1010.4
20260510003405 11 167 0.0 0.0 0.00 0.69 0.48 100 1010.3
20260510002404 11 201 0.0 0.0 0.00 0.69 0.48 100 1010.3
20260510001905 12 178 0.0 1.6 0.00 0.69 0.48 99 1010.3
20260510001404 12 195 0.0 3.2 0.00 0.69 0.48 99 1010.2
20260510000905 12 187 0.0 0.0 0.00 0.69 0.48 98 1010.3
20260510000404 12 187 0.0 0.0 0.00 0.69 0.48 98 1010.2
20260509235905 12 187 0.0 3.2 0.00 0.69 0.48 98 1010.2
20260509235404 12 173 0.0 1.6 0.00 0.69 0.48 96 1010.3
20260509234404 13 315 1.6 3.2 0.00 0.69 0.48 95 1010.4
20260509233905 13 72 0.0 0.0 0.00 0.69 0.48 94 1010.3
20260509233404 13 42 0.0 3.2 0.00 0.69 0.48 94 1010.3
20260509232905 13 64 1.6 3.2 0.00 0.69 0.48 93 1010.2
20260509232405 13 56 1.6 3.2 0.00 0.69 0.48 92 1010.3
20260509231905 13 61 1.6 3.2 0.00 0.69 0.48 92 1010.2
20260509231405 14 50 0.0 1.6 0.00 0.69 0.48 90 1010.2
20260509230905 14 3 0.0 3.2 0.00 0.69 0.48 89 1010.2
20260509230405 14 47 0.0 0.0 0.00 0.69 0.48 89 1010.2
20260509225905 14 81 1.6 3.2 0.00 0.69 0.48 88 1010.2
20260509225405 14 153 0.0 1.6 0.00 0.69 0.48 89 1010.2
20260509224904 13 333 0.0 3.2 0.00 0.69 0.48 92 1010.2
20260509224405 13 137 3.2 8.0 0.00 0.69 0.48 92 1010.3
20260509223905 13 62 3.2 8.0 0.00 0.69 0.48 93 1010.2
20260509223404 13 43 0.0 1.6 0.00 0.69 0.48 94 1010.1
20260509222906 13 50 1.6 4.8 0.00 0.69 0.48 95 1010.1
20260509222405 13 232 1.6 4.8 0.18 0.69 0.48 95 1010.1
20260509221905 13 53 1.6 3.2 0.18 0.69 0.48 95 1010.1
20260509221404 13 116 0.0 3.2 0.18 0.69 0.48 95 1010.1
20260509220405 13 178 1.6 3.2 0.18 0.69 0.48 95 1010.2
20260509215905 13 97 1.6 4.8 0.18 0.69 0.48 96 1010.3
20260509215405 13 67 1.6 3.2 0.20 0.69 0.48 96 1010.3
20260509214904 13 34 1.6 4.8 0.33 0.69 0.48 96 1010.3
20260509214404 13 172 1.6 4.8 0.33 0.69 0.48 96 1010.3
20260509213904 13 72 0.0 3.2 0.33 0.69 0.48 96 1010.5
20260509213405 13 190 0.0 3.2 0.38 0.69 0.48 96 1010.5
20260509212906 13 69 3.2 4.8 0.38 0.69 0.48 95 1010.6
20260509212405 13 137 0.0 4.8 0.20 0.51 0.30 95 1010.6
20260509211405 13 43 3.2 4.8 0.20 0.51 0.30 96 1010.4
20260509210405 12 57 0.0 3.2 0.43 0.51 0.51 96 1010.4
20260509205905 12 62 0.0 4.8 0.43 0.51 0.51 95 1010.5
20260509205404 12 196 1.6 4.8 0.20 0.28 0.28 93 1010.8
20260509204905 12 66 0.0 3.2 0.08 0.15 0.15 92 1010.2